Time,TemperatureF,DewpointF,PressureIn,WindDirection,WindDirectionDegrees,WindSpeedMPH,WindSpeedGustMPH,Humidity,HourlyPrecipIn,Conditions,Clouds,dailyrainin,SoftwareType,DateUTC
2013-08-29 00:00:00,81.5,67.2,29.99,ESE,111,0.0,0.0,62,0.00,,,0.00,Wunderground v.1.15,2013-08-29 05:00:00,
2013-08-29 00:10:00,81.2,67.4,29.99,ESE,111,0.0,0.0,63,0.00,,,0.00,Wunderground v.1.15,2013-08-29 05:10:00,
2013-08-29 00:15:00,81.1,67.8,29.99,ESE,112,0.0,0.0,64,0.00,,,0.00,Wunderground v.1.15,2013-08-29 05:15:00,
2013-08-29 00:20:00,80.9,67.6,29.99,ESE,112,0.0,0.0,64,0.00,,,0.00,Wunderground v.1.15,2013-08-29 05:20:00,
2013-08-29 00:25:00,80.6,67.7,29.99,ESE,111,0.0,0.0,65,0.00,,,0.00,Wunderground v.1.15,2013-08-29 05:25:00,
2013-08-29 00:30:00,80.3,67.5,29.99,ESE,112,0.0,0.0,65,0.00,,,0.00,Wunderground v.1.15,2013-08-29 05:30:00,
2013-08-29 00:35:00,80.0,67.6,29.99,ESE,112,0.0,0.0,66,0.00,,,0.00,Wunderground v.1.15,2013-08-29 05:35:00,
2013-08-29 00:40:00,79.8,67.9,29.99,ESE,112,0.0,0.0,67,0.00,,,0.00,Wunderground v.1.15,2013-08-29 05:40:00,
2013-08-29 00:50:00,79.4,67.5,29.99,ESE,111,0.0,0.0,67,0.00,,,0.00,Wunderground v.1.15,2013-08-29 05:50:00,
2013-08-29 00:55:00,79.2,67.7,29.99,ESE,111,0.0,0.0,68,0.00,,,0.00,Wunderground v.1.15,2013-08-29 05:55:00,
2013-08-29 01:00:00,79.0,67.5,29.99,ESE,112,0.0,0.0,68,0.00,,,0.00,Wunderground v.1.15,2013-08-29 06:00:00,
2013-08-29 01:05:00,79.1,68.1,29.99,ESE,112,0.0,0.0,69,0.00,,,0.00,Wunderground v.1.15,2013-08-29 06:05:00,
2013-08-29 01:10:00,79.2,67.7,29.99,ESE,111,0.0,0.0,68,0.00,,,0.00,Wunderground v.1.15,2013-08-29 06:10:00,
2013-08-29 01:15:00,79.3,67.8,29.99,ESE,111,0.0,0.0,68,0.00,,,0.00,Wunderground v.1.15,2013-08-29 06:15:00,
2013-08-29 01:20:00,79.3,67.8,29.99,ESE,111,0.0,0.0,68,0.00,,,0.00,Wunderground v.1.15,2013-08-29 06:20:00,
2013-08-29 01:25:00,79.2,68.1,29.99,ESE,112,0.0,0.0,69,0.00,,,0.00,Wunderground v.1.15,2013-08-29 06:25:00,
2013-08-29 01:35:00,79.1,68.1,29.99,ESE,111,0.0,0.0,69,0.00,,,0.00,Wunderground v.1.15,2013-08-29 06:35:00,
2013-08-29 01:40:00,79.0,68.0,29.99,ESE,111,0.0,0.0,69,0.00,,,0.00,Wunderground v.1.15,2013-08-29 06:40:00,
2013-08-29 01:45:00,79.0,68.0,29.99,ESE,111,0.0,0.0,69,0.00,,,0.00,Wunderground v.1.15,2013-08-29 06:45:00,
2013-08-29 01:55:00,78.8,67.8,29.99,ESE,111,0.0,0.0,69,0.00,,,0.00,Wunderground v.1.15,2013-08-29 06:55:00,
2013-08-29 02:00:00,78.6,67.6,29.99,ESE,112,0.0,0.0,69,0.00,,,0.00,Wunderground v.1.15,2013-08-29 07:00:00,
2013-08-29 02:10:00,78.3,67.7,29.99,ESE,111,0.0,0.0,70,0.00,,,0.00,Wunderground v.1.15,2013-08-29 07:10:00,
2013-08-29 02:15:00,78.3,67.7,29.99,ESE,111,0.0,0.0,70,0.00,,,0.00,Wunderground v.1.15,2013-08-29 07:15:00,
2013-08-29 02:20:00,78.1,67.5,29.99,ESE,112,0.0,0.0,70,0.00,,,0.00,Wunderground v.1.15,2013-08-29 07:20:00,
2013-08-29 02:25:00,78.1,67.5,29.99,ESE,111,0.0,0.0,70,0.00,,,0.00,Wunderground v.1.15,2013-08-29 07:25:00,
2013-08-29 02:35:00,77.8,67.6,29.99,ESE,111,0.0,0.0,71,0.00,,,0.00,Wunderground v.1.15,2013-08-29 07:35:00,
2013-08-29 02:40:00,77.7,67.5,29.99,ESE,111,0.0,0.0,71,0.00,,,0.00,Wunderground v.1.15,2013-08-29 07:40:00,
2013-08-29 02:45:00,77.7,67.5,29.99,ESE,111,0.0,0.0,71,0.00,,,0.00,Wunderground v.1.15,2013-08-29 07:45:00,
2013-08-29 02:55:00,77.6,67.9,29.99,ESE,111,0.0,0.0,72,0.00,,,0.00,Wunderground v.1.15,2013-08-29 07:55:00,
2013-08-29 03:00:00,77.5,67.8,29.99,ESE,112,0.0,0.0,72,0.00,,,0.00,Wunderground v.1.15,2013-08-29 08:00:00,
2013-08-29 03:10:00,77.3,68.0,29.99,ESE,111,0.0,0.0,73,0.00,,,0.00,Wunderground v.1.15,2013-08-29 08:10:00,
2013-08-29 03:15:00,77.2,67.9,29.99,ESE,112,0.0,0.0,73,0.00,,,0.00,Wunderground v.1.15,2013-08-29 08:15:00,
2013-08-29 03:25:00,77.0,68.1,29.99,ESE,111,0.0,0.0,74,0.00,,,0.00,Wunderground v.1.15,2013-08-29 08:25:00,
2013-08-29 03:30:00,77.0,68.1,29.99,ESE,112,0.0,0.0,74,0.00,,,0.00,Wunderground v.1.15,2013-08-29 08:30:00,
2013-08-29 03:35:00,77.0,68.1,29.99,ESE,112,0.0,0.0,74,0.00,,,0.00,Wunderground v.1.15,2013-08-29 08:35:00,
2013-08-29 03:45:00,76.8,67.9,29.99,ESE,111,0.0,0.0,74,0.00,,,0.00,Wunderground v.1.15,2013-08-29 08:45:00,
2013-08-29 03:50:00,76.6,68.1,29.99,ESE,112,0.0,0.0,75,0.00,,,0.00,Wunderground v.1.15,2013-08-29 08:50:00,
2013-08-29 03:55:00,76.4,67.9,29.99,ESE,111,0.0,0.0,75,0.00,,,0.00,Wunderground v.1.15,2013-08-29 08:55:00,
2013-08-29 04:00:00,76.3,67.8,30.00,ESE,113,0.0,0.0,75,0.00,,,0.00,Wunderground v.1.15,2013-08-29 09:00:00,
2013-08-29 04:10:00,76.1,67.6,29.99,ESE,111,0.0,0.0,75,0.00,,,0.00,Wunderground v.1.15,2013-08-29 09:10:00,
2013-08-29 04:15:00,76.1,67.6,29.99,ESE,112,0.0,0.0,75,0.00,,,0.00,Wunderground v.1.15,2013-08-29 09:15:00,
2013-08-29 04:20:00,76.1,67.6,29.99,ESE,113,0.0,0.0,75,0.00,,,0.00,Wunderground v.1.15,2013-08-29 09:20:00,
2013-08-29 04:25:00,76.0,67.5,29.99,ESE,113,0.0,0.0,75,0.00,,,0.00,Wunderground v.1.15,2013-08-29 09:25:00,
2013-08-29 04:30:00,75.9,67.8,29.99,ESE,112,0.0,0.0,76,0.00,,,0.00,Wunderground v.1.15,2013-08-29 09:30:00,
2013-08-29 04:35:00,75.7,67.2,29.99,ESE,111,0.0,0.0,75,0.00,,,0.00,Wunderground v.1.15,2013-08-29 09:35:00,
2013-08-29 04:45:00,75.6,67.5,29.99,ESE,113,0.0,0.0,76,0.00,,,0.00,Wunderground v.1.15,2013-08-29 09:45:00,
2013-08-29 04:50:00,75.7,67.6,29.99,ESE,111,0.0,0.0,76,0.00,,,0.00,Wunderground v.1.15,2013-08-29 09:50:00,
2013-08-29 04:55:00,75.7,67.6,29.99,ESE,111,0.0,0.0,76,0.00,,,0.00,Wunderground v.1.15,2013-08-29 09:55:00,
2013-08-29 05:00:00,75.7,67.6,29.99,ESE,111,0.0,0.0,76,0.00,,,0.00,Wunderground v.1.15,2013-08-29 10:00:00,
2013-08-29 05:10:00,75.5,67.4,30.00,ESE,112,0.0,0.0,76,0.00,,,0.00,Wunderground v.1.15,2013-08-29 10:10:00,
2013-08-29 05:15:00,75.5,67.8,30.00,ESE,112,0.0,0.0,77,0.00,,,0.00,Wunderground v.1.15,2013-08-29 10:15:00,
2013-08-29 05:25:00,75.2,67.5,30.00,ESE,111,0.0,0.0,77,0.00,,,0.00,Wunderground v.1.15,2013-08-29 10:25:00,
2013-08-29 05:30:00,75.0,67.3,30.00,ESE,111,0.0,0.0,77,0.00,,,0.00,Wunderground v.1.15,2013-08-29 10:30:00,
2013-08-29 05:40:00,74.8,67.5,30.00,ESE,113,0.0,0.0,78,0.00,,,0.00,Wunderground v.1.15,2013-08-29 10:40:00,
2013-08-29 05:45:00,74.8,67.5,30.00,ESE,111,0.0,0.0,78,0.00,,,0.00,Wunderground v.1.15,2013-08-29 10:45:00,
2013-08-29 05:50:00,74.6,67.3,30.00,ESE,113,0.0,0.0,78,0.00,,,0.00,Wunderground v.1.15,2013-08-29 10:50:00,
2013-08-29 05:55:00,74.5,67.6,30.01,ESE,111,0.0,0.0,79,0.00,,,0.00,Wunderground v.1.15,2013-08-29 10:55:00,
2013-08-29 06:00:00,74.5,67.6,30.01,ESE,111,0.0,0.0,79,0.00,,,0.00,Wunderground v.1.15,2013-08-29 11:00:00,
2013-08-29 06:10:00,74.4,67.8,30.01,ESE,111,0.0,0.0,80,0.00,,,0.00,Wunderground v.1.15,2013-08-29 11:10:00,
2013-08-29 06:15:00,74.5,67.6,30.01,ESE,111,0.0,0.0,79,0.00,,,0.00,Wunderground v.1.15,2013-08-29 11:15:00,
2013-08-29 06:25:00,74.6,68.0,30.01,ESE,113,0.0,0.0,80,0.00,,,0.00,Wunderground v.1.15,2013-08-29 11:25:00,
2013-08-29 06:30:00,74.6,68.0,30.01,ESE,112,0.0,0.0,80,0.00,,,0.00,Wunderground v.1.15,2013-08-29 11:30:00,
2013-08-29 06:40:00,74.6,67.7,30.01,ESE,111,0.0,0.0,79,0.00,,,0.00,Wunderground v.1.15,2013-08-29 11:40:00,
2013-08-29 06:45:00,74.6,67.7,30.01,ESE,111,0.0,0.0,79,0.00,,,0.00,Wunderground v.1.15,2013-08-29 11:45:00,
2013-08-29 06:50:00,74.5,67.6,30.02,ESE,111,0.0,0.0,79,0.00,,,0.00,Wunderground v.1.15,2013-08-29 11:50:00,
2013-08-29 06:55:00,74.4,67.8,30.02,ESE,111,0.0,0.0,80,0.00,,,0.00,Wunderground v.1.15,2013-08-29 11:55:00,
2013-08-29 07:00:00,74.4,67.8,30.02,ESE,113,0.0,0.0,80,0.00,,,0.00,Wunderground v.1.15,2013-08-29 12:00:00,
2013-08-29 07:10:00,74.3,67.7,30.02,ESE,111,0.0,0.0,80,0.00,,,0.00,Wunderground v.1.15,2013-08-29 12:10:00,
2013-08-29 07:15:00,74.5,67.9,30.02,ESE,112,0.0,0.0,80,0.00,,,0.00,Wunderground v.1.15,2013-08-29 12:15:00,
2013-08-29 07:25:00,74.7,68.1,30.02,ESE,111,0.0,0.0,80,0.00,,,0.00,Wunderground v.1.15,2013-08-29 12:25:00,
2013-08-29 07:30:00,75.6,68.6,30.03,ESE,112,0.0,0.0,79,0.00,,,0.00,Wunderground v.1.15,2013-08-29 12:30:00,
2013-08-29 07:35:00,76.4,69.0,30.03,East,91,0.0,0.0,78,0.00,,,0.00,Wunderground v.1.15,2013-08-29 12:35:00,
2013-08-29 07:40:00,76.9,69.5,30.03,East,91,0.0,0.0,78,0.00,,,0.00,Wunderground v.1.15,2013-08-29 12:40:00,
2013-08-29 07:50:00,77.4,69.6,30.03,SE,130,0.0,0.0,77,0.00,,,0.00,Wunderground v.1.15,2013-08-29 12:50:00,
2013-08-29 07:55:00,78.2,69.6,30.04,SE,131,0.0,0.0,75,0.00,,,0.00,Wunderground v.1.15,2013-08-29 12:55:00,
2013-08-29 08:00:00,78.6,69.6,30.04,SSW,210,0.0,1.0,74,0.00,,,0.00,Wunderground v.1.15,2013-08-29 13:00:00,
2013-08-29 08:10:00,79.4,69.6,30.03,SE,143,0.0,0.0,72,0.00,,,0.00,Wunderground v.1.15,2013-08-29 13:10:00,
2013-08-29 08:15:00,79.8,69.6,30.04,SE,143,0.0,0.0,71,0.00,,,0.00,Wunderground v.1.15,2013-08-29 13:15:00,
2013-08-29 08:25:00,80.8,69.7,30.04,SE,131,0.0,0.0,69,0.00,,,0.00,Wunderground v.1.15,2013-08-29 13:25:00,
2013-08-29 08:30:00,81.3,69.3,30.04,SE,131,0.0,0.0,67,0.00,,,0.00,Wunderground v.1.15,2013-08-29 13:30:00,
2013-08-29 08:35:00,81.7,69.7,30.04,SW,228,0.0,1.0,67,0.00,,,0.00,Wunderground v.1.15,2013-08-29 13:35:00,
2013-08-29 08:40:00,82.1,69.6,30.04,SW,228,0.0,1.0,66,0.00,,,0.00,Wunderground v.1.15,2013-08-29 13:40:00,
2013-08-29 08:50:00,82.7,69.7,30.04,SW,227,0.0,1.0,65,0.00,,,0.00,Wunderground v.1.15,2013-08-29 13:50:00,
2013-08-29 08:55:00,83.0,70.0,30.04,SW,221,0.0,1.0,65,0.00,,,0.00,Wunderground v.1.15,2013-08-29 13:55:00,
2013-08-29 09:00:00,83.4,69.5,30.05,SE,138,0.0,1.0,63,0.00,,,0.00,Wunderground v.1.15,2013-08-29 14:00:00,
2013-08-29 09:10:00,84.2,69.8,30.05,WSW,250,0.0,1.0,62,0.00,,,0.00,Wunderground v.1.15,2013-08-29 14:10:00,
2013-08-29 09:15:00,84.8,69.4,30.05,SSE,159,0.0,1.0,60,0.00,,,0.00,Wunderground v.1.15,2013-08-29 14:15:00,
2013-08-29 09:25:00,86.3,69.8,30.05,SW,216,1.0,4.0,58,0.00,,,0.00,Wunderground v.1.15,2013-08-29 14:25:00,
2013-08-29 09:30:00,87.1,70.0,30.05,SW,214,1.0,4.0,57,0.00,,,0.00,Wunderground v.1.15,2013-08-29 14:30:00,
2013-08-29 09:35:00,87.8,69.6,30.04,SW,233,1.0,4.0,55,0.00,,,0.00,Wunderground v.1.15,2013-08-29 14:35:00,
2013-08-29 09:40:00,88.3,69.5,30.05,SW,221,1.0,1.0,54,0.00,,,0.00,Wunderground v.1.15,2013-08-29 14:40:00,
2013-08-29 09:45:00,89.0,69.6,30.05,SSW,210,1.0,3.0,53,0.00,,,0.00,Wunderground v.1.15,2013-08-29 14:45:00,
2013-08-29 09:50:00,89.2,69.8,30.05,WSW,241,1.0,5.0,53,0.00,,,0.00,Wunderground v.1.15,2013-08-29 14:50:00,
2013-08-29 09:55:00,89.6,70.2,30.05,WSW,242,2.0,5.0,53,0.00,,,0.00,Wunderground v.1.15,2013-08-29 14:55:00,
2013-08-29 10:00:00,90.0,69.4,30.05,SW,226,2.0,2.0,51,0.00,,,0.00,Wunderground v.1.15,2013-08-29 15:00:00,
2013-08-29 10:10:00,91.0,69.8,30.05,ESE,112,2.0,2.0,50,0.00,,,0.00,Wunderground v.1.15,2013-08-29 15:10:00,
2013-08-29 10:15:00,91.5,70.2,30.05,SW,222,2.0,4.0,50,0.00,,,0.00,Wunderground v.1.15,2013-08-29 15:15:00,
2013-08-29 10:25:00,92.0,70.1,30.05,North,359,2.0,4.0,49,0.00,,,0.00,Wunderground v.1.15,2013-08-29 15:25:00,
2013-08-29 10:30:00,92.7,70.7,30.05,West,262,1.0,4.0,49,0.00,,,0.00,Wunderground v.1.15,2013-08-29 15:30:00,
2013-08-29 10:40:00,93.8,69.9,30.05,SSE,158,1.0,4.0,46,0.00,,,0.00,Wunderground v.1.15,2013-08-29 15:40:00,
2013-08-29 10:50:00,94.3,70.3,30.05,West,259,2.0,6.0,46,0.00,,,0.00,Wunderground v.1.15,2013-08-29 15:50:00,
2013-08-29 10:55:00,94.5,69.9,30.05,South,174,2.0,6.0,45,0.00,,,0.00,Wunderground v.1.15,2013-08-29 15:55:00,
2013-08-29 11:00:00,95.0,69.7,30.05,SW,225,1.0,5.0,44,0.00,,,0.00,Wunderground v.1.15,2013-08-29 16:00:00,
2013-08-29 11:10:00,95.4,70.7,30.05,SE,146,1.0,1.0,45,0.00,,,0.00,Wunderground v.1.15,2013-08-29 16:10:00,
2013-08-29 11:15:00,96.0,69.2,30.05,SW,219,1.0,6.0,42,0.00,,,0.00,Wunderground v.1.15,2013-08-29 16:15:00,
2013-08-29 11:20:00,96.5,69.7,30.05,SW,226,1.0,1.0,42,0.00,,,0.00,Wunderground v.1.15,2013-08-29 16:20:00,
2013-08-29 11:25:00,96.8,69.2,30.04,WSW,253,1.0,4.0,41,0.00,,,0.00,Wunderground v.1.15,2013-08-29 16:25:00,
2013-08-29 11:30:00,97.3,69.7,30.04,SW,221,1.0,4.0,41,0.00,,,0.00,Wunderground v.1.15,2013-08-29 16:30:00,
2013-08-29 11:35:00,97.1,69.5,30.04,West,262,2.0,4.0,41,0.00,,,0.00,Wunderground v.1.15,2013-08-29 16:35:00,
2013-08-29 11:40:00,97.4,69.0,30.04,SSW,207,1.0,4.0,40,0.00,,,0.00,Wunderground v.1.15,2013-08-29 16:40:00,
2013-08-29 11:45:00,97.8,69.4,30.03,SW,219,1.0,4.0,40,0.00,,,0.00,Wunderground v.1.15,2013-08-29 16:45:00,
2013-08-29 11:55:00,98.1,68.2,30.03,SE,126,1.0,5.0,38,0.00,,,0.00,Wunderground v.1.15,2013-08-29 16:55:00,
2013-08-29 12:00:00,98.7,68.7,30.03,SSE,163,1.0,1.0,38,0.00,,,0.00,Wunderground v.1.15,2013-08-29 17:00:00,
2013-08-29 12:10:00,99.5,69.4,30.03,SW,229,1.0,2.0,38,0.00,,,0.00,Wunderground v.1.15,2013-08-29 17:10:00,
2013-08-29 12:15:00,99.6,68.7,30.02,SSE,148,1.0,2.0,37,0.00,,,0.00,Wunderground v.1.15,2013-08-29 17:15:00,
2013-08-29 12:20:00,99.5,68.6,30.02,SSE,156,2.0,2.0,37,0.00,,,0.00,Wunderground v.1.15,2013-08-29 17:20:00,
2013-08-29 12:30:00,100.2,68.4,30.02,SW,235,1.0,1.0,36,0.00,,,0.00,Wunderground v.1.15,2013-08-29 17:30:00,
2013-08-29 12:40:00,101.4,68.7,30.02,ESE,122,1.0,1.0,35,0.00,,,0.00,Wunderground v.1.15,2013-08-29 17:40:00,
2013-08-29 12:45:00,100.4,67.8,30.02,SW,225,2.0,2.0,35,0.00,,,0.00,Wunderground v.1.15,2013-08-29 17:45:00,
2013-08-29 12:50:00,99.3,66.8,30.01,SSE,153,1.0,1.0,35,0.00,,,0.00,Wunderground v.1.15,2013-08-29 17:50:00,
2013-08-29 12:55:00,98.4,66.9,30.01,SW,222,1.0,5.0,36,0.00,,,0.00,Wunderground v.1.15,2013-08-29 17:55:00,
2013-08-29 13:00:00,99.2,67.6,30.01,West,280,0.0,4.0,36,0.00,,,0.00,Wunderground v.1.15,2013-08-29 18:00:00,
2013-08-29 13:10:00,100.8,67.3,30.00,ENE,71,1.0,1.0,34,0.00,,,0.00,Wunderground v.1.15,2013-08-29 18:10:00,
2013-08-29 13:15:00,100.8,67.3,30.00,SSE,149,1.0,2.0,34,0.00,,,0.00,Wunderground v.1.15,2013-08-29 18:15:00,
2013-08-29 13:20:00,100.8,67.3,30.00,South,184,2.0,5.0,34,0.00,,,0.00,Wunderground v.1.15,2013-08-29 18:20:00,
2013-08-29 13:25:00,100.8,65.5,30.00,ESE,103,2.0,5.0,32,0.00,,,0.00,Wunderground v.1.15,2013-08-29 18:25:00,
2013-08-29 13:30:00,101.8,68.2,30.00,ESE,111,1.0,5.0,34,0.00,,,0.00,Wunderground v.1.15,2013-08-29 18:30:00,
2013-08-29 13:40:00,101.3,66.0,29.99,NNW,343,1.0,1.0,32,0.00,,,0.00,Wunderground v.1.15,2013-08-29 18:40:00,
2013-08-29 13:45:00,100.2,66.8,29.99,SSW,210,1.0,3.0,34,0.00,,,0.00,Wunderground v.1.15,2013-08-29 18:45:00,
2013-08-29 13:50:00,99.9,67.3,29.99,SW,226,1.0,1.0,35,0.00,,,0.00,Wunderground v.1.15,2013-08-29 18:50:00,
2013-08-29 13:55:00,100.6,66.3,29.99,SW,221,1.0,3.0,33,0.00,,,0.00,Wunderground v.1.15,2013-08-29 18:55:00,
2013-08-29 14:00:00,100.4,66.1,29.99,WSW,246,2.0,2.0,33,0.00,,,0.00,Wunderground v.1.15,2013-08-29 19:00:00,
2013-08-29 14:10:00,102.2,65.8,29.99,SE,129,1.0,1.0,31,0.00,,,0.00,Wunderground v.1.15,2013-08-29 19:10:00,
2013-08-29 14:15:00,102.9,65.5,29.98,SSW,205,1.0,4.0,30,0.00,,,0.00,Wunderground v.1.15,2013-08-29 19:15:00,
2013-08-29 14:25:00,102.1,67.6,29.98,WNW,287,1.0,6.0,33,0.00,,,0.00,Wunderground v.1.15,2013-08-29 19:25:00,
2013-08-29 14:30:00,102.3,65.9,29.98,SW,228,2.0,6.0,31,0.00,,,0.00,Wunderground v.1.15,2013-08-29 19:30:00,
2013-08-29 14:35:00,102.2,66.8,29.98,WNW,300,2.0,7.0,32,0.00,,,0.00,Wunderground v.1.15,2013-08-29 19:35:00,
2013-08-29 14:45:00,102.5,66.1,29.97,WSW,239,2.0,7.0,31,0.00,,,0.00,Wunderground v.1.15,2013-08-29 19:45:00,
2013-08-29 14:50:00,102.9,66.4,29.97,ENE,67,1.0,2.0,31,0.00,,,0.00,Wunderground v.1.15,2013-08-29 19:50:00,
2013-08-29 14:55:00,102.6,66.2,29.97,South,188,1.0,2.0,31,0.00,,,0.00,Wunderground v.1.15,2013-08-29 19:55:00,
2013-08-29 15:00:00,102.6,65.2,29.97,SE,135,1.0,1.0,30,0.00,,,0.00,Wunderground v.1.15,2013-08-29 20:00:00,
2013-08-29 15:10:00,103.2,65.8,29.96,NNW,347,1.0,1.0,30,0.00,,,0.00,Wunderground v.1.15,2013-08-29 20:10:00,
2013-08-29 15:15:00,102.0,64.7,29.96,SSE,156,1.0,7.0,30,0.00,,,0.00,Wunderground v.1.15,2013-08-29 20:15:00,
2013-08-29 15:25:00,101.3,65.1,29.96,WSW,257,1.0,4.0,31,0.00,,,0.00,Wunderground v.1.15,2013-08-29 20:25:00,
2013-08-29 15:30:00,100.9,65.6,29.96,WSW,255,1.0,4.0,32,0.00,,,0.00,Wunderground v.1.15,2013-08-29 20:30:00,
2013-08-29 15:40:00,101.4,66.1,29.95,SW,233,2.0,2.0,32,0.00,,,0.00,Wunderground v.1.15,2013-08-29 20:40:00,
2013-08-29 15:45:00,102.3,65.0,29.95,ESE,114,2.0,4.0,30,0.00,,,0.00,Wunderground v.1.15,2013-08-29 20:45:00,
2013-08-29 15:50:00,102.5,64.2,29.95,SSW,212,1.0,1.0,29,0.00,,,0.00,Wunderground v.1.15,2013-08-29 20:50:00,
2013-08-29 15:55:00,102.7,64.4,29.94,WSW,253,1.0,3.0,29,0.00,,,0.00,Wunderground v.1.15,2013-08-29 20:55:00,
2013-08-29 16:00:00,102.5,65.2,29.94,SSE,165,1.0,6.0,30,0.00,,,0.00,Wunderground v.1.15,2013-08-29 21:00:00,
2013-08-29 16:10:00,101.2,64.0,29.94,NE,48,1.0,2.0,30,0.00,,,0.00,Wunderground v.1.15,2013-08-29 21:10:00,
2013-08-29 16:15:00,100.0,63.9,29.94,NE,34,1.0,2.0,31,0.00,,,0.00,Wunderground v.1.15,2013-08-29 21:15:00,
2013-08-29 16:25:00,100.1,64.0,29.94,SE,146,0.0,2.0,31,0.00,,,0.00,Wunderground v.1.15,2013-08-29 21:25:00,
2013-08-29 16:30:00,101.5,65.2,29.93,NNW,343,0.0,2.0,31,0.00,,,0.00,Wunderground v.1.15,2013-08-29 21:30:00,
2013-08-29 16:40:00,101.6,65.3,29.93,NW,320,1.0,1.0,31,0.00,,,0.00,Wunderground v.1.15,2013-08-29 21:40:00,
2013-08-29 16:45:00,102.9,66.4,29.93,NW,311,0.0,3.0,31,0.00,,,0.00,Wunderground v.1.15,2013-08-29 21:45:00,
2013-08-29 16:50:00,103.4,65.9,29.93,ENE,68,0.0,2.0,30,0.00,,,0.00,Wunderground v.1.15,2013-08-29 21:50:00,
2013-08-29 16:55:00,102.8,65.4,29.93,NNE,22,1.0,2.0,30,0.00,,,0.00,Wunderground v.1.15,2013-08-29 21:55:00,
2013-08-29 17:00:00,102.8,64.4,29.93,NNE,27,1.0,1.0,29,0.00,,,0.00,Wunderground v.1.15,2013-08-29 22:00:00,
2013-08-29 17:10:00,102.1,63.8,29.93,NNE,26,1.0,1.0,29,0.00,,,0.00,Wunderground v.1.15,2013-08-29 22:10:00,
2013-08-29 17:20:00,100.6,63.5,29.93,ENE,59,1.0,1.0,30,0.00,,,0.00,Wunderground v.1.15,2013-08-29 22:20:00,
2013-08-29 17:25:00,99.8,63.8,29.92,North,351,1.0,5.0,31,0.00,,,0.00,Wunderground v.1.15,2013-08-29 22:25:00,
2013-08-29 17:30:00,99.3,63.3,29.92,North,356,1.0,1.0,31,0.00,,,0.00,Wunderground v.1.15,2013-08-29 22:30:00,
2013-08-29 17:35:00,98.9,63.9,29.92,North,4,0.0,2.0,32,0.00,,,0.00,Wunderground v.1.15,2013-08-29 22:35:00,
2013-08-29 17:40:00,98.7,63.7,29.92,NNE,29,0.0,2.0,32,0.00,,,0.00,Wunderground v.1.15,2013-08-29 22:40:00,
2013-08-29 17:45:00,98.6,63.6,29.92,NE,47,0.0,2.0,32,0.00,,,0.00,Wunderground v.1.15,2013-08-29 22:45:00,
2013-08-29 17:50:00,98.9,64.8,29.92,NNE,16,0.0,2.0,33,0.00,,,0.00,Wunderground v.1.15,2013-08-29 22:50:00,
2013-08-29 17:55:00,99.1,64.1,29.92,NE,34,0.0,2.0,32,0.00,,,0.00,Wunderground v.1.15,2013-08-29 22:55:00,
2013-08-29 18:00:00,99.1,64.1,29.92,NE,35,0.0,1.0,32,0.00,,,0.00,Wunderground v.1.15,2013-08-29 23:00:00,
2013-08-29 18:10:00,98.4,64.3,29.92,NNE,32,0.0,1.0,33,0.00,,,0.00,Wunderground v.1.15,2013-08-29 23:10:00,
2013-08-29 18:15:00,98.5,63.6,29.92,NNE,32,0.0,1.0,32,0.00,,,0.00,Wunderground v.1.15,2013-08-29 23:15:00,
2013-08-29 18:20:00,98.9,64.8,29.93,NE,35,0.0,1.0,33,0.00,,,0.00,Wunderground v.1.15,2013-08-29 23:20:00,
2013-08-29 18:25:00,99.5,64.4,29.92,ENE,65,0.0,1.0,32,0.00,,,0.00,Wunderground v.1.15,2013-08-29 23:25:00,
2013-08-29 18:30:00,100.2,64.1,29.92,SSW,193,0.0,1.0,31,0.00,,,0.00,Wunderground v.1.15,2013-08-29 23:30:00,
2013-08-29 18:35:00,100.5,64.4,29.92,SSE,150,0.0,1.0,31,0.00,,,0.00,Wunderground v.1.15,2013-08-29 23:35:00,
2013-08-29 18:40:00,100.3,64.2,29.92,SSE,149,0.0,1.0,31,0.00,,,0.00,Wunderground v.1.15,2013-08-29 23:40:00,
2013-08-29 18:45:00,100.5,63.4,29.92,ESE,118,0.0,1.0,30,0.00,,,0.00,Wunderground v.1.15,2013-08-29 23:45:00,
2013-08-29 18:50:00,99.8,62.8,29.92,ESE,118,0.0,1.0,30,0.00,,,0.00,Wunderground v.1.15,2013-08-29 23:50:00,
2013-08-29 19:00:00,98.8,64.7,29.92,ESE,118,0.0,1.0,33,0.00,,,0.00,Wunderground v.1.15,2013-08-30 00:00:00,
2013-08-29 19:10:00,97.9,64.8,29.92,ESE,118,0.0,0.0,34,0.00,,,0.00,Wunderground v.1.15,2013-08-30 00:10:00,
2013-08-29 19:15:00,97.3,64.2,29.92,ESE,120,0.0,0.0,34,0.00,,,0.00,Wunderground v.1.15,2013-08-30 00:15:00,
2013-08-29 19:20:00,96.7,63.7,29.92,ESE,119,0.0,0.0,34,0.00,,,0.00,Wunderground v.1.15,2013-08-30 00:20:00,
2013-08-29 19:25:00,96.2,64.1,29.92,ESE,120,0.0,0.0,35,0.00,,,0.00,Wunderground v.1.15,2013-08-30 00:25:00,
2013-08-29 19:35:00,95.3,64.9,29.92,ESE,119,0.0,0.0,37,0.00,,,0.00,Wunderground v.1.15,2013-08-30 00:35:00,
2013-08-29 19:40:00,94.7,65.1,29.92,ESE,118,0.0,0.0,38,0.00,,,0.00,Wunderground v.1.15,2013-08-30 00:40:00,
2013-08-29 19:45:00,94.0,65.3,29.92,ESE,119,0.0,0.0,39,0.00,,,0.00,Wunderground v.1.15,2013-08-30 00:45:00,
2013-08-29 19:50:00,93.4,65.5,29.92,ESE,118,0.0,0.0,40,0.00,,,0.00,Wunderground v.1.15,2013-08-30 00:50:00,
2013-08-29 19:55:00,92.7,64.8,29.92,ESE,118,0.0,0.0,40,0.00,,,0.00,Wunderground v.1.15,2013-08-30 00:55:00,
2013-08-29 20:00:00,92.0,64.9,29.92,ESE,118,0.0,0.0,41,0.00,,,0.00,Wunderground v.1.15,2013-08-30 01:00:00,
2013-08-29 20:10:00,90.8,65.2,29.92,ESE,118,0.0,0.0,43,0.00,,,0.00,Wunderground v.1.15,2013-08-30 01:10:00,
2013-08-29 20:15:00,90.4,65.5,29.92,ESE,118,0.0,0.0,44,0.00,,,0.00,Wunderground v.1.15,2013-08-30 01:15:00,
2013-08-29 20:20:00,89.9,65.1,29.93,ESE,118,0.0,0.0,44,0.00,,,0.00,Wunderground v.1.15,2013-08-30 01:20:00,
2013-08-29 20:25:00,89.4,65.3,29.93,ESE,118,0.0,0.0,45,0.00,,,0.00,Wunderground v.1.15,2013-08-30 01:25:00,
2013-08-29 20:30:00,89.0,65.5,29.93,ESE,118,0.0,0.0,46,0.00,,,0.00,Wunderground v.1.15,2013-08-30 01:30:00,
2013-08-29 20:40:00,88.3,65.5,29.93,ESE,118,0.0,0.0,47,0.00,,,0.00,Wunderground v.1.15,2013-08-30 01:40:00,
2013-08-29 20:45:00,87.9,65.8,29.93,ESE,119,0.0,0.0,48,0.00,,,0.00,Wunderground v.1.15,2013-08-30 01:45:00,
2013-08-29 20:50:00,87.5,65.4,29.93,ESE,118,0.0,0.0,48,0.00,,,0.00,Wunderground v.1.15,2013-08-30 01:50:00,
2013-08-29 20:55:00,87.2,65.7,29.93,ESE,118,0.0,0.0,49,0.00,,,0.00,Wunderground v.1.15,2013-08-30 01:55:00,
2013-08-29 21:00:00,87.0,66.1,29.93,ESE,118,0.0,0.0,50,0.00,,,0.00,Wunderground v.1.15,2013-08-30 02:00:00,
2013-08-29 21:10:00,86.8,65.9,29.93,ESE,119,0.0,0.0,50,0.00,,,0.00,Wunderground v.1.15,2013-08-30 02:10:00,
2013-08-29 21:15:00,86.6,65.7,29.93,ESE,119,0.0,0.0,50,0.00,,,0.00,Wunderground v.1.15,2013-08-30 02:15:00,
2013-08-29 21:25:00,85.9,65.7,29.93,ESE,119,0.0,0.0,51,0.00,,,0.00,Wunderground v.1.15,2013-08-30 02:25:00,
2013-08-29 21:30:00,85.6,66.0,29.93,ESE,119,0.0,0.0,52,0.00,,,0.00,Wunderground v.1.15,2013-08-30 02:30:00,
2013-08-29 21:40:00,85.2,66.1,29.94,ESE,119,0.0,0.0,53,0.00,,,0.00,Wunderground v.1.15,2013-08-30 02:40:00,
2013-08-29 21:45:00,85.0,66.5,29.94,ESE,118,0.0,0.0,54,0.00,,,0.00,Wunderground v.1.15,2013-08-30 02:45:00,
2013-08-29 21:50:00,84.8,66.3,29.94,ESE,118,0.0,0.0,54,0.00,,,0.00,Wunderground v.1.15,2013-08-30 02:50:00,
2013-08-29 21:55:00,84.6,66.7,29.93,ESE,119,0.0,0.0,55,0.00,,,0.00,Wunderground v.1.15,2013-08-30 02:55:00,
2013-08-29 22:00:00,84.5,67.1,29.94,ESE,118,0.0,0.0,56,0.00,,,0.00,Wunderground v.1.15,2013-08-30 03:00:00,
2013-08-29 22:10:00,84.3,67.4,29.93,ESE,118,0.0,0.0,57,0.00,,,0.00,Wunderground v.1.15,2013-08-30 03:10:00,
2013-08-29 22:20:00,84.0,67.6,29.94,ESE,118,0.0,0.0,58,0.00,,,0.00,Wunderground v.1.15,2013-08-30 03:20:00,
2013-08-29 22:25:00,83.9,68.0,29.94,ESE,119,0.0,0.0,59,0.00,,,0.00,Wunderground v.1.15,2013-08-30 03:25:00,
2013-08-29 22:30:00,83.7,67.8,29.94,ESE,119,0.0,0.0,59,0.00,,,0.00,Wunderground v.1.15,2013-08-30 03:30:00,
2013-08-29 22:35:00,83.6,68.7,29.94,ESE,119,0.0,0.0,61,0.00,,,0.00,Wunderground v.1.15,2013-08-30 03:35:00,
2013-08-29 22:40:00,83.7,68.8,29.94,ESE,118,0.0,0.0,61,0.00,,,0.00,Wunderground v.1.15,2013-08-30 03:40:00,
2013-08-29 22:45:00,83.7,68.8,29.94,ESE,119,0.0,0.0,61,0.00,,,0.00,Wunderground v.1.15,2013-08-30 03:45:00,
2013-08-29 22:50:00,83.5,68.6,29.94,ESE,119,0.0,0.0,61,0.00,,,0.00,Wunderground v.1.15,2013-08-30 03:50:00,
2013-08-29 22:55:00,83.4,69.0,29.94,ESE,118,0.0,0.0,62,0.00,,,0.00,Wunderground v.1.15,2013-08-30 03:55:00,
2013-08-29 23:00:00,83.4,69.0,29.94,ESE,118,0.0,0.0,62,0.00,,,0.00,Wunderground v.1.15,2013-08-30 04:00:00,
2013-08-29 23:05:00,83.4,69.5,29.94,ESE,118,0.0,0.0,63,0.00,,,0.00,Wunderground v.1.15,2013-08-30 04:05:00,
2013-08-29 23:10:00,83.3,69.4,29.94,ESE,118,0.0,0.0,63,0.00,,,0.00,Wunderground v.1.15,2013-08-30 04:10:00,
2013-08-29 23:15:00,83.1,69.2,29.94,ESE,118,0.0,0.0,63,0.00,,,0.00,Wunderground v.1.15,2013-08-30 04:15:00,
2013-08-29 23:20:00,82.8,68.9,29.94,ESE,118,0.0,0.0,63,0.00,,,0.00,Wunderground v.1.15,2013-08-30 04:20:00,
2013-08-29 23:25:00,82.6,68.7,29.94,ESE,118,0.0,0.0,63,0.00,,,0.00,Wunderground v.1.15,2013-08-30 04:25:00,
2013-08-29 23:30:00,82.3,68.9,29.94,ESE,119,0.0,0.0,64,0.00,,,0.00,Wunderground v.1.15,2013-08-30 04:30:00,
2013-08-29 23:40:00,82.1,69.2,29.94,ESE,119,0.0,0.0,65,0.00,,,0.00,Wunderground v.1.15,2013-08-30 04:40:00,
2013-08-29 23:45:00,81.8,68.9,29.94,ESE,118,0.0,0.0,65,0.00,,,0.00,Wunderground v.1.15,2013-08-30 04:45:00,
2013-08-29 23:50:00,81.7,69.2,29.93,ESE,118,0.0,0.0,66,0.00,,,0.00,Wunderground v.1.15,2013-08-30 04:50:00,
2013-08-29 23:55:00,81.6,69.1,29.94,ESE,118,0.0,0.0,66,0.00,,,0.00,Wunderground v.1.15,2013-08-30 04:55:00,